![]() |
EMODnet Physics ERDDAP
Easier access to scientific data |
log in|
Brought to you by EMODnet Physics |
| Dataset Title: | NDBC - Collection of dew point temperature (DEWT) TimeSeries - IN SITU MultiPointTimeSeriesObservation
|
| Institution: | NDBC (Dataset ID: TS_DEWT_NDBC) |
| Information: | Summary
| License
| FGDC
| ISO 19115
| Metadata
| Background
| Subset
| Data Access Form
| Make a graph
|
| Name | Last modified | Size | Description | |
|---|---|---|---|---|
| Parent Directory | - | - | ||
| 41033_TS_DEWT_012006.nc | 06-Oct-2024 00:43 | 588183 | ||
| 41033_TS_DEWT_012007.nc | 06-Oct-2024 01:05 | 588164 | ||
| 41033_TS_DEWT_012008.nc | 06-Oct-2024 01:24 | 438499 | ||
| 41033_TS_DEWT_012010.nc | 06-Oct-2024 01:57 | 439677 | ||
| 41033_TS_DEWT_012011.nc | 06-Oct-2024 02:11 | 440018 | ||
| 41033_TS_DEWT_012012.nc | 06-Oct-2024 02:27 | 440043 | ||
| 41033_TS_DEWT_012013.nc | 06-Oct-2024 02:40 | 440033 | ||
| 41033_TS_DEWT_012014.nc | 06-Oct-2024 02:47 | 440158 | ||
| 41033_TS_DEWT_012015.nc | 06-Oct-2024 03:02 | 440156 | ||
| 41033_TS_DEWT_012016.nc | 06-Oct-2024 03:27 | 440327 | ||
| 41033_TS_DEWT_012017.nc | 06-Oct-2024 03:54 | 439852 | ||
| 41033_TS_DEWT_012018.nc | 06-Oct-2024 04:16 | 588081 | ||
| 41033_TS_DEWT_012019.nc | 06-Oct-2024 04:39 | 588074 | ||
| 41033_TS_DEWT_012020.nc | 06-Oct-2024 05:05 | 588032 | ||
| 41033_TS_DEWT_012021.nc | 06-Oct-2024 05:28 | 588169 | ||
| 41033_TS_DEWT_012022.nc | 06-Oct-2024 05:43 | 588211 | ||
| 41033_TS_DEWT_012023.nc | 06-Oct-2024 06:02 | 439817 | ||
| 41033_TS_DEWT_012025.nc | 07-Feb-2025 11:57 | 438450 | ||
| 41033_TS_DEWT_012026.nc | 02-Feb-2026 20:20 | 439996 | ||
| 41033_TS_DEWT_022005.nc | 06-Oct-2024 00:26 | 439118 | ||
| 41033_TS_DEWT_022006.nc | 06-Oct-2024 00:45 | 440071 | ||
| 41033_TS_DEWT_022007.nc | 06-Oct-2024 01:07 | 440159 | ||
| 41033_TS_DEWT_022008.nc | 06-Oct-2024 01:25 | 440137 | ||
| 41033_TS_DEWT_022009.nc | 06-Oct-2024 01:40 | 440305 | ||
| 41033_TS_DEWT_022010.nc | 06-Oct-2024 01:57 | 439211 | ||
| 41033_TS_DEWT_022011.nc | 06-Oct-2024 02:13 | 588120 | ||
| 41033_TS_DEWT_022013.nc | 06-Oct-2024 02:40 | 587988 | ||
| 41033_TS_DEWT_022014.nc | 06-Oct-2024 02:48 | 588103 | ||
| 41033_TS_DEWT_022015.nc | 06-Oct-2024 03:05 | 588192 | ||
| 41033_TS_DEWT_022016.nc | 06-Oct-2024 03:29 | 727981 | ||
| 41033_TS_DEWT_022017.nc | 06-Oct-2024 03:56 | 438950 | ||
| 41033_TS_DEWT_022018.nc | 06-Oct-2024 04:18 | 588142 | ||
| 41033_TS_DEWT_022019.nc | 06-Oct-2024 04:40 | 588057 | ||
| 41033_TS_DEWT_022020.nc | 06-Oct-2024 05:06 | 588189 | ||
| 41033_TS_DEWT_022021.nc | 06-Oct-2024 05:31 | 588115 | ||
| 41033_TS_DEWT_022022.nc | 06-Oct-2024 05:44 | 437401 | ||
| 41033_TS_DEWT_022023.nc | 06-Oct-2024 06:03 | 439434 | ||
| 41033_TS_DEWT_022025.nc | 01-Mar-2025 09:06 | 438688 | ||
| 41033_TS_DEWT_022026.nc | 01-Mar-2026 12:05 | 438795 | ||
| 41033_TS_DEWT_032005.nc | 06-Oct-2024 00:28 | 420221 | ||
| 41033_TS_DEWT_032006.nc | 06-Oct-2024 00:47 | 439076 | ||
| 41033_TS_DEWT_032007.nc | 06-Oct-2024 01:09 | 588166 | ||
| 41033_TS_DEWT_032008.nc | 06-Oct-2024 01:27 | 434995 | ||
| 41033_TS_DEWT_032009.nc | 06-Oct-2024 01:43 | 588028 | ||
| 41033_TS_DEWT_032010.nc | 06-Oct-2024 01:58 | 431710 | ||
| 41033_TS_DEWT_032011.nc | 06-Oct-2024 02:15 | 438803 | ||
| 41033_TS_DEWT_032012.nc | 06-Oct-2024 02:28 | 440132 | ||
| 41033_TS_DEWT_032013.nc | 06-Oct-2024 02:41 | 440073 | ||
| 41033_TS_DEWT_032014.nc | 06-Oct-2024 02:50 | 440028 | ||
| 41033_TS_DEWT_032015.nc | 06-Oct-2024 03:07 | 440113 | ||
| 41033_TS_DEWT_032016.nc | 06-Oct-2024 03:30 | 588033 | ||
| 41033_TS_DEWT_032017.nc | 06-Oct-2024 03:58 | 588150 | ||
| 41033_TS_DEWT_032018.nc | 06-Oct-2024 04:20 | 588105 | ||
| 41033_TS_DEWT_032019.nc | 06-Oct-2024 04:41 | 588101 | ||
| 41033_TS_DEWT_032020.nc | 06-Oct-2024 05:08 | 588182 | ||
| 41033_TS_DEWT_032021.nc | 06-Oct-2024 05:33 | 439361 | ||
| 41033_TS_DEWT_032022.nc | 06-Oct-2024 05:46 | 439787 | ||
| 41033_TS_DEWT_032023.nc | 06-Oct-2024 06:05 | 440076 | ||
| 41033_TS_DEWT_032025.nc | 21-Mar-2025 14:32 | 439664 | ||
| 41033_TS_DEWT_032026.nc | 23-Mar-2026 12:58 | 440050 | ||
| 41033_TS_DEWT_042005.nc | 06-Oct-2024 00:30 | 440143 | ||
| 41033_TS_DEWT_042006.nc | 06-Oct-2024 00:48 | 588048 | ||
| 41033_TS_DEWT_042007.nc | 06-Oct-2024 01:10 | 588105 | ||
| 41033_TS_DEWT_042008.nc | 06-Oct-2024 01:28 | 436890 | ||
| 41033_TS_DEWT_042009.nc | 06-Oct-2024 01:45 | 440391 | ||
| 41033_TS_DEWT_042010.nc | 06-Oct-2024 01:58 | 588182 | ||
| 41033_TS_DEWT_042011.nc | 06-Oct-2024 02:17 | 588130 | ||
| 41033_TS_DEWT_042012.nc | 06-Oct-2024 02:29 | 437572 | ||
| 41033_TS_DEWT_042013.nc | 06-Oct-2024 02:42 | 588030 | ||
| 41033_TS_DEWT_042014.nc | 06-Oct-2024 02:53 | 588032 | ||
| 41033_TS_DEWT_042015.nc | 06-Oct-2024 03:08 | 587926 | ||
| 41033_TS_DEWT_042016.nc | 06-Oct-2024 03:32 | 588178 | ||
| 41033_TS_DEWT_042017.nc | 06-Oct-2024 04:00 | 588158 | ||
| 41033_TS_DEWT_042018.nc | 06-Oct-2024 04:21 | 440076 | ||
| 41033_TS_DEWT_042019.nc | 06-Oct-2024 04:44 | 440093 | ||
| 41033_TS_DEWT_042020.nc | 06-Oct-2024 05:10 | 440114 | ||
| 41033_TS_DEWT_042021.nc | 06-Oct-2024 05:35 | 440138 | ||
| 41033_TS_DEWT_042022.nc | 06-Oct-2024 05:47 | 440161 | ||
| 41033_TS_DEWT_042023.nc | 06-Oct-2024 06:06 | 440129 | ||
| 41033_TS_DEWT_052005.nc | 06-Oct-2024 00:32 | 588125 | ||
| 41033_TS_DEWT_052006.nc | 06-Oct-2024 00:49 | 588155 | ||
| 41033_TS_DEWT_052007.nc | 06-Oct-2024 01:12 | 588086 | ||
| 41033_TS_DEWT_052008.nc | 06-Oct-2024 01:29 | 588166 | ||
| 41033_TS_DEWT_052009.nc | 06-Oct-2024 01:47 | 588163 | ||
| 41033_TS_DEWT_052010.nc | 06-Oct-2024 01:59 | 588219 | ||
| 41033_TS_DEWT_052011.nc | 06-Oct-2024 02:19 | 439619 | ||
| 41033_TS_DEWT_052012.nc | 06-Oct-2024 02:30 | 440103 | ||
| 41033_TS_DEWT_052013.nc | 06-Oct-2024 02:42 | 439059 | ||
| 41033_TS_DEWT_052014.nc | 06-Oct-2024 02:55 | 440150 | ||
| 41033_TS_DEWT_052015.nc | 06-Oct-2024 03:11 | 440158 | ||
| 41033_TS_DEWT_052016.nc | 06-Oct-2024 03:35 | 440140 | ||
| 41033_TS_DEWT_052017.nc | 06-Oct-2024 04:02 | 440116 | ||
| 41033_TS_DEWT_052018.nc | 06-Oct-2024 04:24 | 588185 | ||
| 41033_TS_DEWT_052019.nc | 06-Oct-2024 04:46 | 587949 | ||
| 41033_TS_DEWT_052021.nc | 06-Oct-2024 05:37 | 588207 | ||
| 41033_TS_DEWT_052022.nc | 06-Oct-2024 05:48 | 588194 | ||
| 41033_TS_DEWT_052023.nc | 06-Oct-2024 06:08 | 423830 | ||
| 41033_TS_DEWT_062005.nc | 06-Oct-2024 00:34 | 429699 | ||
| 41033_TS_DEWT_062007.nc | 06-Oct-2024 01:13 | 429794 | ||
| 41033_TS_DEWT_062008.nc | 06-Oct-2024 01:31 | 429412 | ||
| 41033_TS_DEWT_062010.nc | 06-Oct-2024 01:59 | 588064 | ||
| 41033_TS_DEWT_062011.nc | 06-Oct-2024 02:20 | 588054 | ||
| 41033_TS_DEWT_062012.nc | 06-Oct-2024 02:32 | 440402 | ||
| 41033_TS_DEWT_062013.nc | 06-Oct-2024 02:42 | 587931 | ||
| 41033_TS_DEWT_062014.nc | 06-Oct-2024 02:57 | 587858 | ||
| 41033_TS_DEWT_062015.nc | 06-Oct-2024 03:13 | 588004 | ||
| 41033_TS_DEWT_062016.nc | 06-Oct-2024 03:37 | 438088 | ||
| 41033_TS_DEWT_062017.nc | 06-Oct-2024 04:04 | 588091 | ||
| 41033_TS_DEWT_062018.nc | 06-Oct-2024 04:26 | 439915 | ||
| 41033_TS_DEWT_062019.nc | 06-Oct-2024 04:49 | 587899 | ||
| 41033_TS_DEWT_062020.nc | 06-Oct-2024 05:14 | 588135 | ||
| 41033_TS_DEWT_062021.nc | 06-Oct-2024 05:38 | 588187 | ||
| 41033_TS_DEWT_062022.nc | 06-Oct-2024 05:49 | 588062 | ||
| 41033_TS_DEWT_062023.nc | 06-Oct-2024 06:10 | 588111 | ||
| 41033_TS_DEWT_072005.nc | 06-Oct-2024 00:35 | 428808 | ||
| 41033_TS_DEWT_072006.nc | 06-Oct-2024 00:51 | 428729 | ||
| 41033_TS_DEWT_072007.nc | 06-Oct-2024 01:15 | 428686 | ||
| 41033_TS_DEWT_072009.nc | 06-Oct-2024 01:52 | 439143 | ||
| 41033_TS_DEWT_072010.nc | 06-Oct-2024 01:59 | 438592 | ||
| 41033_TS_DEWT_072011.nc | 06-Oct-2024 02:22 | 438676 | ||
| 41033_TS_DEWT_072012.nc | 06-Oct-2024 02:34 | 438440 | ||
| 41033_TS_DEWT_072013.nc | 06-Oct-2024 02:43 | 439594 | ||
| 41033_TS_DEWT_072014.nc | 06-Oct-2024 03:00 | 438686 | ||
| 41033_TS_DEWT_072015.nc | 06-Oct-2024 03:16 | 438487 | ||
| 41033_TS_DEWT_072016.nc | 06-Oct-2024 03:39 | 438967 | ||
| 41033_TS_DEWT_072017.nc | 06-Oct-2024 04:06 | 438556 | ||
| 41033_TS_DEWT_072018.nc | 06-Oct-2024 04:29 | 438067 | ||
| 41033_TS_DEWT_072019.nc | 06-Oct-2024 04:51 | 438735 | ||
| 41033_TS_DEWT_072020.nc | 06-Oct-2024 05:17 | 439324 | ||
| 41033_TS_DEWT_072021.nc | 06-Oct-2024 05:40 | 438795 | ||
| 41033_TS_DEWT_072022.nc | 06-Oct-2024 05:51 | 438804 | ||
| 41033_TS_DEWT_072023.nc | 06-Oct-2024 06:13 | 419670 | ||
| 41033_TS_DEWT_082005.nc | 06-Oct-2024 00:37 | 429777 | ||
| 41033_TS_DEWT_082006.nc | 06-Oct-2024 00:54 | 429703 | ||
| 41033_TS_DEWT_082007.nc | 06-Oct-2024 01:16 | 429741 | ||
| 41033_TS_DEWT_082009.nc | 06-Oct-2024 01:53 | 587972 | ||
| 41033_TS_DEWT_082010.nc | 06-Oct-2024 02:00 | 587995 | ||
| 41033_TS_DEWT_082011.nc | 06-Oct-2024 02:24 | 439912 | ||
| 41033_TS_DEWT_082013.nc | 06-Oct-2024 02:43 | 439839 | ||
| 41033_TS_DEWT_082015.nc | 06-Oct-2024 03:18 | 588297 | ||
| 41033_TS_DEWT_082016.nc | 06-Oct-2024 03:41 | 440220 | ||
| 41033_TS_DEWT_082017.nc | 06-Oct-2024 04:08 | 587893 | ||
| 41033_TS_DEWT_082018.nc | 06-Oct-2024 04:31 | 439850 | ||
| 41033_TS_DEWT_082019.nc | 06-Oct-2024 04:54 | 587847 | ||
| 41033_TS_DEWT_082020.nc | 06-Oct-2024 05:19 | 587873 | ||
| 41033_TS_DEWT_082021.nc | 06-Oct-2024 05:40 | 587784 | ||
| 41033_TS_DEWT_082022.nc | 06-Oct-2024 05:52 | 588075 | ||
| 41033_TS_DEWT_082023.nc | 06-Oct-2024 06:16 | 588163 | ||
| 41033_TS_DEWT_092005.nc | 06-Oct-2024 00:38 | 588212 | ||
| 41033_TS_DEWT_092006.nc | 06-Oct-2024 00:57 | 429426 | ||
| 41033_TS_DEWT_092007.nc | 06-Oct-2024 01:18 | 429365 | ||
| 41033_TS_DEWT_092010.nc | 06-Oct-2024 02:01 | 438151 | ||
| 41033_TS_DEWT_092011.nc | 06-Oct-2024 02:25 | 440042 | ||
| 41033_TS_DEWT_092012.nc | 06-Oct-2024 02:35 | 440131 | ||
| 41033_TS_DEWT_092013.nc | 06-Oct-2024 02:43 | 439704 | ||
| 41033_TS_DEWT_092015.nc | 06-Oct-2024 03:20 | 440271 | ||
| 41033_TS_DEWT_092016.nc | 06-Oct-2024 03:44 | 439845 | ||
| 41033_TS_DEWT_092017.nc | 06-Oct-2024 04:09 | 430203 | ||
| 41033_TS_DEWT_092018.nc | 06-Oct-2024 04:33 | 439718 | ||
| 41033_TS_DEWT_092019.nc | 06-Oct-2024 04:56 | 439775 | ||
| 41033_TS_DEWT_092020.nc | 06-Oct-2024 05:21 | 439907 | ||
| 41033_TS_DEWT_092021.nc | 06-Oct-2024 05:40 | 439778 | ||
| 41033_TS_DEWT_092022.nc | 06-Oct-2024 05:54 | 439815 | ||
| 41033_TS_DEWT_092023.nc | 06-Oct-2024 06:18 | 440041 | ||
| 41033_TS_DEWT_092025.nc | 01-Oct-2025 04:46 | 440160 | ||
| 41033_TS_DEWT_102005.nc | 06-Oct-2024 00:40 | 440120 | ||
| 41033_TS_DEWT_102006.nc | 06-Oct-2024 00:59 | 429585 | ||
| 41033_TS_DEWT_102007.nc | 06-Oct-2024 01:19 | 429833 | ||
| 41033_TS_DEWT_102008.nc | 06-Oct-2024 01:33 | 429834 | ||
| 41033_TS_DEWT_102009.nc | 06-Oct-2024 01:55 | 588034 | ||
| 41033_TS_DEWT_102010.nc | 06-Oct-2024 02:03 | 440286 | ||
| 41033_TS_DEWT_102011.nc | 06-Oct-2024 02:26 | 429376 | ||
| 41033_TS_DEWT_102012.nc | 06-Oct-2024 02:36 | 588184 | ||
| 41033_TS_DEWT_102013.nc | 06-Oct-2024 02:43 | 440310 | ||
| 41033_TS_DEWT_102015.nc | 06-Oct-2024 03:23 | 587936 | ||
| 41033_TS_DEWT_102016.nc | 06-Oct-2024 03:47 | 587911 | ||
| 41033_TS_DEWT_102017.nc | 06-Oct-2024 04:10 | 587837 | ||
| 41033_TS_DEWT_102018.nc | 06-Oct-2024 04:35 | 440101 | ||
| 41033_TS_DEWT_102019.nc | 06-Oct-2024 04:58 | 587839 | ||
| 41033_TS_DEWT_102020.nc | 06-Oct-2024 05:22 | 440128 | ||
| 41033_TS_DEWT_102021.nc | 06-Oct-2024 05:41 | 588153 | ||
| 41033_TS_DEWT_102022.nc | 06-Oct-2024 05:56 | 588081 | ||
| 41033_TS_DEWT_102023.nc | 06-Oct-2024 06:21 | 588020 | ||
| 41033_TS_DEWT_102024.nc | 12-Jan-2025 20:56 | 588212 | ||
| 41033_TS_DEWT_102025.nc | 01-Nov-2025 07:47 | 588208 | ||
| 41033_TS_DEWT_112005.nc | 06-Oct-2024 00:41 | 429496 | ||
| 41033_TS_DEWT_112006.nc | 06-Oct-2024 01:01 | 429441 | ||
| 41033_TS_DEWT_112007.nc | 06-Oct-2024 01:21 | 429306 | ||
| 41033_TS_DEWT_112008.nc | 06-Oct-2024 01:35 | 439729 | ||
| 41033_TS_DEWT_112009.nc | 06-Oct-2024 01:56 | 439687 | ||
| 41033_TS_DEWT_112010.nc | 06-Oct-2024 02:06 | 420192 | ||
| 41033_TS_DEWT_112012.nc | 06-Oct-2024 02:38 | 440069 | ||
| 41033_TS_DEWT_112013.nc | 06-Oct-2024 02:44 | 439703 | ||
| 41033_TS_DEWT_112015.nc | 06-Oct-2024 03:24 | 432249 | ||
| 41033_TS_DEWT_112016.nc | 06-Oct-2024 03:49 | 439931 | ||
| 41033_TS_DEWT_112017.nc | 06-Oct-2024 04:11 | 439874 | ||
| 41033_TS_DEWT_112018.nc | 06-Oct-2024 04:36 | 439103 | ||
| 41033_TS_DEWT_112019.nc | 06-Oct-2024 05:00 | 439801 | ||
| 41033_TS_DEWT_112020.nc | 06-Oct-2024 05:24 | 439889 | ||
| 41033_TS_DEWT_112021.nc | 06-Oct-2024 05:41 | 439897 | ||
| 41033_TS_DEWT_112022.nc | 06-Oct-2024 05:58 | 440019 | ||
| 41033_TS_DEWT_112023.nc | 06-Oct-2024 06:22 | 439738 | ||
| 41033_TS_DEWT_112024.nc | 17-Jan-2025 15:12 | 440057 | ||
| 41033_TS_DEWT_112025.nc | 01-Dec-2025 09:43 | 440150 | ||
| 41033_TS_DEWT_122005.nc | 06-Oct-2024 00:42 | 429834 | ||
| 41033_TS_DEWT_122006.nc | 06-Oct-2024 01:04 | 429818 | ||
| 41033_TS_DEWT_122007.nc | 06-Oct-2024 01:22 | 429758 | ||
| 41033_TS_DEWT_122008.nc | 06-Oct-2024 01:38 | 588124 | ||
| 41033_TS_DEWT_122009.nc | 06-Oct-2024 01:56 | 588045 | ||
| 41033_TS_DEWT_122010.nc | 06-Oct-2024 02:09 | 440229 | ||
| 41033_TS_DEWT_122011.nc | 06-Oct-2024 02:26 | 588177 | ||
| 41033_TS_DEWT_122012.nc | 06-Oct-2024 02:39 | 440313 | ||
| 41033_TS_DEWT_122013.nc | 06-Oct-2024 02:45 | 587997 | ||
| 41033_TS_DEWT_122015.nc | 06-Oct-2024 03:25 | 588092 | ||
| 41033_TS_DEWT_122016.nc | 06-Oct-2024 03:51 | 439657 | ||
| 41033_TS_DEWT_122017.nc | 06-Oct-2024 04:13 | 440302 | ||
| 41033_TS_DEWT_122018.nc | 06-Oct-2024 04:37 | 588092 | ||
| 41033_TS_DEWT_122019.nc | 06-Oct-2024 05:02 | 588101 | ||
| 41033_TS_DEWT_122020.nc | 06-Oct-2024 05:26 | 588017 | ||
| 41033_TS_DEWT_122021.nc | 06-Oct-2024 05:42 | 587817 | ||
| 41033_TS_DEWT_122022.nc | 06-Oct-2024 06:00 | 588178 | ||
| 41033_TS_DEWT_122023.nc | 06-Oct-2024 06:23 | 588187 | ||
| 41033_TS_DEWT_122024.nc | 22-Jan-2025 16:43 | 428986 | ||
| 41033_TS_DEWT_122025.nc | 01-Jan-2026 09:20 | 429790 | ||